Showing default

INTELSAT 37E, 42950

Orbit data source: Space-Track

INTELSAT 37E, 42950 is a payload satellite owned by Intelsat SA (US) (US) in GEO that was launched on Fri, 29 Sep 2017 UTC via an ARIANE 5ECA launch vehicle from the French Guiana (FRGUI). Payloads include a variety of satellites, spacecraft, and rockets equipped with specific instruments for various scientific and technological missions. These include communications satellites like Starlink; space stations such as the ISS; scientific satellites like the Hubble; Earth observation satellites from companies like Planet Labs, Umbra, and HawkEye 360; GPS; miniature CubeSats for education and research; and military/defense satellites.

Not visible in the next 10 days
INTELSAT 37E details
Identifier
42950, 2017-059A
Orbit
GEO
Last TLE update1 day ago
Origin
Flag of USIntelsat SA (US) (US / ITSO)
ManufacturerBoeing/ES
MissionOperational Commercial Communications
Bus & MotorBSS-702MP, BT-4
Mass6,538 kg wet, ~2,950 kg dry
Launch date (UTC)
2017-09-29 (7 years ago)
Launch vehicle
ARIANE 5ECA
Launch site
French Guiana (FRGUI)
Object type
Payload
Rocket body
Debris
Shape & HBRBox + 2 Pan, 44 m
Radar Cross Section65.369 m², Large (>1 m²)

Expand to show TLE details & history

TLE from 1 day ago
0 INTELSAT 37E
1 42950U 17059A   24360.41577355 -.00000114  00000-0  00000-0 0  9991
2 42950   0.0033  91.7488 0002760 175.4497 318.8966  1.00271686 26669
Epoch: 2024-12-25T09:58Z
Definitive object data (Epoch: 2024-12-25T09:58:42.834Z)
Latitude-0.00052°
Longitude-18.02062°
Altitude35,777.31 km
Speed3.075 km/s
True Right ascension15h 04m 16s
True Declination0° 00' 02"
Sunlit
Object was in daylight at TLE epoch
Visualization TLE readout
Latitude-0.00281°
Longitude-6.85938°
Altitude35,776.017 km
Speed3.075 km/s
Apparent Right ascension16h 15m 33s
Apparent Declination-5° 30' 50"
Sunlit
Object is in daylight
Visualization observer readout
Local Sidereal Time10:00:30
Azimuth91.835° ESE
Elevation-6.415°
Doppler factor1
Orbital elements
Apogee altitude35,799.331 km
Perigee altitude35,776.055 km
Semi-major axis42,165.83 km
Eccentricity0.000276
Inclination0.0033°
RAAN91.7488°
Arg. of periapsis175.4497°
True anomaly318.8758°
Mean anomaly318.8966°
Eccentric anomaly318.8862°
Mean motion0.25067 °/min
BSTARUnknown
Orbital period1436.15 mins
Loading historical data...
42950 neighbors
Authenticating...
Loading maneuver chart data...
Loading historical data...
Loading historical data...
Loading historical data...
Loading historical data...
Loading historical data...
Loading historical data...
Loading historical data...
Other satellites on launch #59 in the year 2017 (2017-09-29 UTC)

INTELSAT 37E Visibility forecast

Observer location: undefined°, undefined

INTELSAT 37E is not visible in the next 10 days
Span
Click to sort rows by Start time (UTC) header in descending order
Start Az.
Max El. time (UTC)
Max El. Az.
Max El.
End time (UTC)
End Az.
|